Theta_e
315 308 307 310 309 308 310 310 312 313 315 316 314 313 313 312 312 312 312 312 311 311 312 312 312 311 315 314 310 309 321 309 331 323 321 323 322 330 342 339 348 353 353 354 354 352 353
320 314 307 307 309 308 309 310 311 312 313 314 315 314 313 313 312 313 313 312 312 311 310 310 310 314 315 310 310 324 329 321 326 318 318 321 322 332 337 341 349 348 352 353 356 354 353
320 321 314 308 307 309 308 309 311 312 313 314 315 314 313 312 312 311 312 313 313 312 312 310 311 316 317 311 311 324 325 321 325 317 318 319 326 334 338 338 343 351 356 357 356 355 355
321 320 321 315 308 308 309 309 310 312 313 313 314 314 313 310 309 309 311 313 311 312 312 311 314 317 311 309 316 322 316 317 319 317 317 317 329 335 337 333 339 356 355 361 359 355 353
320 320 320 321 316 307 309 309 309 311 312 313 313 312 313 312 310 308 309 313 312 311 312 314 315 316 312 313 318 320 316 314 317 315 313 317 323 333 330 328 350 351 356 359 363 357 356
321 321 321 321 321 311 307 310 309 310 311 312 313 312 312 312 312 311 310 314 318 316 316 315 317 319 319 321 318 318 318 314 315 315 317 319 323 334 328 328 345 353 355 357 358 357 358
321 320 321 321 321 318 308 309 309 309 311 311 312 312 312 312 312 312 311 314 316 318 318 317 317 317 317 319 317 317 316 314 314 316 321 322 332 340 339 328 329 342 344 358 361 356 357
323 320 320 321 321 321 311 308 310 309 310 310 311 312 312 312 312 311 310 313 315 316 320 317 317 316 316 317 320 318 317 317 315 319 322 324 331 333 327 325 328 350 357 359 355 353 356
323 321 320 320 322 321 315 307 310 310 309 310 310 311 311 311 311 312 311 313 314 315 318 316 318 319 318 318 321 321 321 317 316 321 325 324 327 328 326 325 329 331 342 357 357 354 354
322 321 321 320 320 321 316 307 310 310 310 309 309 310 311 312 311 311 312 314 314 314 319 322 320 320 319 319 321 320 320 319 321 322 326 331 324 328 324 326 327 333 329 353 353 353 356
321 320 320 319 320 321 316 307 310 310 310 310 310 310 312 312 312 312 313 314 314 311 325 322 321 317 317 320 322 321 320 322 323 324 324 327 326 325 325 325 324 328 329 352 353 354 355
320 319 319 320 319 321 314 308 310 311 310 310 310 310 313 312 311 312 313 313 311 320 325 323 320 320 320 318 321 321 322 321 320 322 323 324 321 324 326 324 325 340 345 349 350 353 357
319 320 320 320 319 321 310 309 311 311 310 310 311 313 313 313 312 314 312 314 322 324 321 321 322 319 319 319 322 323 324 324 324 324 326 323 323 321 321 323 323 335 343 348 350 354 346
319 320 320 319 319 321 308 310 311 310 309 310 312 315 314 313 312 312 314 319 324 323 322 320 320 318 323 322 324 322 323 324 320 322 323 325 324 323 321 323 324 332 335 340 347 348 346
317 317 319 320 320 314 307 310 311 309 309 311 315 315 313 313 314 312 319 320 321 321 320 321 319 322 323 323 324 324 323 323 322 322 324 324 324 324 321 322 323 324 326 330 338 341 347
316 316 318 317 319 310 308 311 311 309 310 315 315 315 315 315 314 314 320 318 321 319 322 320 321 321 324 325 326 325 323 324 322 321 320 323 325 324 325 321 322 324 325 328 333 345 346
314 315 317 316 320 314 308 311 310 309 313 317 314 321 316 316 315 320 322 320 321 320 322 320 321 324 324 325 326 327 324 324 323 323 319 323 325 327 325 325 325 325 326 327 331 334 341
314 314 316 316 320 319 308 311 311 310 318 317 313 324 316 316 322 316 322 320 318 319 319 319 319 322 324 324 326 327 323 323 324 323 321 321 326 329 328 324 322 326 327 329 329 337 342
315 314 314 315 318 320 309 311 311 311 317 315 320 320 316 315 321 319 320 321 319 316 317 318 320 320 321 324 324 325 325 324 325 319 319 322 325 331 329 323 322 325 322 327 331 336 343
315 314 314 314 316 320 310 311 311 311 316 314 317 320 316 314 312 319 321 318 316 314 317 317 320 319 320 322 322 324 323 323 319 323 324 321 323 329 329 327 324 325 321 325 331 331 337
314 314 315 313 315 319 312 310 311 311 316 314 317 320 315 317 314 314 315 314 316 316 315 320 322 322 321 324 323 322 320 320 320 321 318 321 326 324 322 321 322 324 333 323 328 330 335
311 312 313 313 314 317 315 310 311 312 315 316 323 322 318 318 312 313 311 315 314 314 316 318 322 320 322 325 323 321 319 319 320 320 322 319 327 324 326 323 321 323 331 332 334 333 340
311 310 311 313 313 315 317 309 311 312 315 317 316 316 318 313 311 314 313 315 314 314 313 313 316 320 319 317 316 315 315 315 315 317 323 324 327 328 327 325 326 325 324 337 340 341 343
310 310 310 311 312 314 318 309 311 312 312 314 316 318 318 316 315 316 314 314 314 314 316 314 313 319 316 313 312 314 315 315 316 315 315 324 326 324 330 328 330 325 321 329 342 344 344
310 310 310 311 311 313 317 309 310 312 312 314 316 316 320 319 315 315 315 315 315 314 316 314 314 313 311 314 318 320 319 318 323 316 315 318 324 325 325 329 329 324 322 324 329 334 342
309 310 310 310 311 313 315 310 310 312 311 315 316 317 319 319 317 315 315 315 317 318 318 316 314 311 315 318 321 323 324 327 325 321 317 317 321 323 324 326 330 329 323 323 330 331 341
309 310 310 310 310 311 313 312 309 311 310 314 318 318 318 321 319 316 318 318 315 316 319 317 316 317 316 322 326 327 330 325 328 324 325 321 320 322 323 325 323 322 323 322 327 329 334
309 311 311 311 310 310 312 313 308 311 310 312 318 318 318 319 319 318 316 319 318 318 322 317 318 318 319 325 325 327 326 327 322 320 322 325 322 321 319 322 322 322 324 327 326 325 332
309 310 311 312 311 310 311 314 308 310 309 311 317 317 319 318 320 318 318 314 314 317 318 315 320 319 319 324 322 321 326 321 319 322 318 325 322 326 323 324 322 321 322 321 321 323 330
Wind_Speed
19 20 21 20 18 16 16 17 18 18 17 15 14 13 12 11 10 10 10 9 8 7 7 7 7 3 1 2 6 4 5 18 22 18 20 11 15 6 6 5 6 4 3 8 10 13 12
20 19 20 20 20 18 16 17 18 20 18 17 15 13 12 12 12 11 10 11 9 7 4 4 2 2 2 4 5 10 10 22 20 12 11 13 9 5 5 4 6 5 5 6 13 14 15
20 20 19 19 20 19 17 17 18 20 20 18 16 14 13 12 11 10 9 10 10 7 6 2 2 3 2 7 7 3 14 16 18 9 8 5 5 4 5 6 2 7 4 7 15 17 13
22 21 20 18 19 19 18 18 18 19 20 19 17 15 13 11 9 9 7 7 8 5 2 2 8 2 5 2 3 10 11 12 14 7 5 3 1 1 2 1 3 3 1 3 6 14 8
24 22 20 19 18 19 19 18 18 19 20 20 19 16 13 11 10 8 7 3 3 2 3 4 2 2 2 2 3 11 10 12 12 3 3 5 3 2 3 5 3 3 2 5 6 3 9
24 24 23 21 18 18 18 17 16 17 19 19 18 17 15 13 12 9 5 4 6 6 5 2 3 3 3 3 6 12 6 16 5 7 5 4 2 4 2 7 7 8 4 6 6 5 6
23 25 25 23 19 18 18 18 16 16 18 20 19 17 17 16 16 13 4 5 2 3 5 5 3 3 2 3 10 6 9 8 6 8 6 5 6 12 11 5 4 8 5 8 5 4 6
22 24 23 25 22 19 19 19 17 16 17 20 21 19 20 19 18 8 4 2 2 3 6 7 7 7 8 3 4 7 13 5 8 13 8 7 14 7 4 5 6 8 10 7 10 3 7
22 23 23 24 24 20 19 20 19 16 17 18 21 22 22 21 15 3 3 4 3 1 3 3 3 3 1 9 6 11 14 8 11 12 13 13 4 9 7 6 8 4 3 8 7 9 11
23 23 22 23 24 21 19 21 20 18 17 19 22 24 26 18 2 2 4 3 6 4 2 6 2 2 4 3 5 7 15 9 5 12 8 9 4 13 8 10 7 7 7 9 17 7 4
25 23 22 22 24 21 20 22 21 19 19 20 23 27 25 12 6 3 2 7 2 3 2 11 2 2 2 2 13 7 7 4 7 8 5 4 11 12 11 7 7 1 12 13 15 7 7
25 23 22 23 23 21 21 23 22 21 21 23 25 29 20 6 4 4 3 4 3 2 4 4 5 6 2 2 2 6 9 1 2 5 3 4 2 7 8 7 8 9 15 12 5 2 3
23 23 23 24 23 20 21 23 23 24 24 25 30 25 13 5 1 4 5 2 1 3 3 6 4 5 2 5 4 6 10 6 4 6 9 4 5 2 3 6 7 9 14 5 3 3 4
23 24 23 23 23 21 23 25 26 27 26 30 30 10 3 3 3 3 2 1 5 1 2 2 2 2 3 5 3 3 7 7 4 2 4 8 9 9 7 9 6 13 11 6 7 6 4
23 23 24 24 22 21 25 27 28 30 30 35 14 4 4 8 5 3 1 4 1 1 2 6 1 3 3 2 0 1 3 3 1 4 2 4 5 1 6 6 12 7 9 7 1 1 5
23 24 24 24 22 22 26 28 29 31 33 26 4 2 6 9 7 1 4 3 1 2 1 1 3 3 3 4 1 2 2 1 4 0 2 6 3 3 5 7 3 7 9 10 5 8 7
22 22 23 24 22 23 26 29 31 33 34 12 2 2 10 2 6 4 3 1 1 3 4 2 3 2 2 2 2 1 1 2 1 3 3 4 3 4 3 9 12 6 5 3 6 3 9
22 21 22 23 22 23 25 28 30 34 29 7 1 2 3 8 1 1 1 0 2 2 1 1 1 2 3 2 2 1 3 0 2 2 3 2 2 4 3 2 3 2 10 13 9 10 1
22 21 21 21 22 21 23 26 28 32 22 5 2 2 2 2 2 2 0 1 2 1 4 4 2 4 2 3 2 3 3 2 2 3 3 4 1 3 5 4 3 2 1 3 2 3 9
21 21 20 19 21 20 21 24 26 30 17 4 1 2 1 3 2 1 2 1 2 3 2 2 2 2 2 3 4 2 3 1 4 3 8 1 2 4 5 1 1 2 2 3 7 9 6
20 20 19 19 19 19 19 22 24 28 17 3 3 2 1 1 3 2 2 1 2 3 4 8 3 5 1 2 2 3 3 3 1 7 3 1 3 3 3 2 8 6 5 3 7 2 9
20 19 18 17 18 18 16 19 22 23 16 3 1 2 2 3 0 1 2 2 1 1 4 4 3 5 4 3 3 3 4 4 3 5 2 3 2 1 3 1 5 4 10 5 3 1 2
20 19 18 16 16 16 14 16 19 20 14 4 2 1 1 1 2 1 0 1 2 1 2 2 2 2 5 3 1 3 3 1 2 2 2 2 2 3 4 5 4 4 7 7 1 1 1
20 19 17 16 15 14 13 12 15 17 18 3 3 1 1 2 1 3 5 3 3 1 1 2 2 1 3 2 3 4 8 3 2 8 1 3 4 1 3 4 8 5 4 4 3 3 3
20 18 17 16 13 13 12 9 12 13 13 4 4 2 1 3 1 6 8 5 2 2 2 2 2 2 4 3 2 4 3 3 5 7 9 3 2 3 3 3 3 3 4 5 7 3 1
17 15 15 16 14 12 10 7 8 10 11 4 4 2 1 4 4 3 4 3 2 1 0 1 2 1 2 2 2 2 2 1 1 2 3 4 4 3 1 3 5 4 4 6 6 3 3
16 12 13 15 14 10 10 6 6 8 9 6 2 5 1 1 1 2 2 3 3 2 1 1 3 1 2 2 2 1 1 1 1 0 1 2 2 5 5 5 2 4 12 3 3 3 6
15 12 13 14 14 11 9 6 5 6 7 6 1 5 1 1 1 2 3 4 3 2 2 2 2 1 1 2 1 2 1 1 1 0 1 1 1 1 2 2 3 7 1 3 5 6 5
14 14 14 13 13 12 8 6 4 4 6 5 1 5 1 1 2 1 2 2 2 2 4 1 1 1 1 3 1 2 2 2 1 1 1 2 2 1 2 2 3 4 3 7 8 8 4
Wind_Direction
8 11 14 10 7 4 360 0 358 352 347 343 339 335 331 328 321 318 312 306 295 288 290 301 309 359 323 212 253 316 341 155 154 162 167 170 166 166 169 182 174 227 140 162 179 191 182
6 9 11 14 10 3 359 359 359 355 350 345 340 340 336 332 329 323 320 313 304 299 291 293 295 50 265 249 305 314 184 164 155 152 159 161 178 201 133 175 201 161 142 159 154 168 149
7 6 7 9 9 5 358 357 357 358 358 349 346 343 339 335 330 327 326 317 306 294 274 236 189 136 242 254 333 27 146 161 162 154 168 187 178 230 150 149 193 161 124 109 156 161 139
9 6 4 5 5 5 359 356 356 358 1 357 351 347 344 341 345 344 332 336 316 298 272 162 133 195 245 251 4 135 138 132 149 136 175 187 231 162 255 99 118 167 219 153 104 158 147
9 7 3 360 0 3 3 358 356 357 359 3 0 358 353 344 347 345 340 353 28 128 127 132 122 231 262 220 184 168 137 147 161 147 61 198 282 257 184 150 116 157 192 168 127 89 150
6 6 5 1 360 360 2 359 356 354 356 359 2 359 355 347 345 350 7 115 66 94 110 158 254 257 243 85 142 153 146 142 134 146 126 141 204 217 178 196 188 171 176 146 146 167 176
3 3 2 1 359 356 358 358 355 353 352 353 357 354 353 347 341 345 126 129 195 182 203 247 308 300 315 41 127 174 150 115 119 155 156 154 195 199 195 206 125 154 182 124 103 40 90
1 360 358 357 357 353 354 356 354 351 350 350 349 350 348 342 333 333 141 233 197 87 303 233 245 266 270 271 120 137 168 132 163 158 143 161 213 190 212 208 133 125 147 99 89 44 91
358 359 357 354 352 351 351 354 353 348 346 346 344 343 343 336 338 135 233 229 196 283 270 298 185 232 236 176 151 168 179 142 165 170 176 189 186 170 185 192 172 151 145 155 133 121 74
358 359 356 352 348 350 351 353 352 345 344 343 341 339 337 339 22 299 259 190 247 212 314 23 72 137 148 227 113 157 181 155 167 182 167 190 133 169 173 191 196 173 203 138 135 144 130
0 1 358 353 347 351 352 353 350 345 340 339 337 335 333 327 286 224 160 329 123 154 98 338 34 30 122 229 131 179 195 173 174 163 199 143 159 168 176 183 190 54 173 151 161 98 138
2 4 2 352 350 351 352 353 349 344 341 339 334 330 324 312 242 225 261 333 162 253 60 7 358 354 153 34 101 129 178 121 101 137 176 119 141 174 198 182 177 121 130 103 115 141 225
4 360 355 351 352 353 353 350 347 346 342 337 332 323 297 226 193 151 336 165 282 47 324 3 348 358 65 24 90 153 171 171 179 172 188 193 185 179 181 162 144 184 175 151 181 198 228
358 355 353 353 353 353 353 350 348 346 342 336 334 334 343 198 146 272 161 139 67 14 343 340 338 354 72 3 59 46 149 164 88 86 160 208 215 210 171 213 174 190 211 195 197 193 195
358 358 357 356 356 356 354 352 349 346 343 337 347 41 45 337 255 258 175 63 98 170 323 337 109 62 59 43 346 117 67 129 126 173 204 178 223 213 209 174 192 174 222 247 121 6 199
356 357 356 358 357 357 355 353 350 346 344 340 3 68 26 48 84 338 58 97 117 255 294 256 64 355 47 18 172 108 111 122 125 157 317 176 255 192 156 178 164 219 182 202 223 207 229
352 352 354 355 354 355 355 354 351 347 345 350 36 96 357 66 6 41 67 40 281 248 239 15 67 84 50 23 42 1 99 116 126 135 161 158 226 142 192 204 188 174 202 207 222 267 217
345 348 349 351 352 354 354 353 353 350 351 25 46 81 27 2 28 44 60 308 335 5 43 2 36 70 54 38 51 2 153 41 59 189 192 175 188 237 248 98 290 239 220 202 218 198 235
343 344 346 347 349 352 355 353 355 354 357 357 65 94 305 355 69 66 50 340 341 38 37 357 53 44 73 42 1 31 24 359 238 192 180 188 194 209 176 169 136 176 131 230 178 206 201
341 342 343 344 347 349 355 354 356 354 357 17 121 115 69 58 25 144 142 32 110 37 71 324 5 120 111 47 56 31 17 10 321 24 70 187 158 259 259 36 43 137 15 202 235 225 189
339 338 340 342 344 347 356 355 356 355 360 22 15 87 25 75 46 117 86 16 78 11 9 22 76 35 31 103 84 23 9 308 79 360 69 328 192 167 130 79 112 80 24 233 215 227 224
336 336 336 338 342 344 353 355 357 359 357 53 85 156 129 98 313 89 19 47 90 88 1 20 50 12 39 77 58 52 1 15 35 320 47 359 113 343 164 121 167 78 49 78 102 142 265
332 331 332 332 337 341 348 356 358 0 9 30 7 77 293 61 111 123 50 133 82 105 112 56 324 299 105 83 341 330 302 315 5 282 54 31 74 353 184 343 228 197 21 30 343 89 333
326 326 324 326 328 336 340 353 358 2 8 9 341 300 138 120 158 140 152 117 130 88 94 35 13 297 46 297 167 133 38 64 93 60 6 133 108 75 318 302 225 87 35 59 65 72 337
320 322 322 320 322 330 333 347 352 359 358 347 343 291 156 113 141 127 135 124 116 39 58 36 64 359 333 23 127 135 179 223 17 16 25 10 129 100 343 314 335 149 29 22 13 13 355
314 314 320 322 320 325 326 333 342 350 355 338 336 304 244 147 198 130 143 157 156 190 283 171 79 9 39 60 79 136 184 82 162 140 341 21 61 177 72 282 239 60 360 338 276 47 107
307 300 309 317 321 317 319 314 329 344 355 354 329 360 312 80 185 177 139 156 124 120 215 307 348 54 354 72 74 107 144 306 221 115 343 32 58 190 185 198 269 354 322 344 250 63 316
297 286 301 308 311 305 308 298 315 338 353 353 250 9 341 24 89 213 176 138 137 173 196 124 222 125 89 87 161 155 185 126 231 286 320 309 226 154 139 182 183 2 358 334 341 306 295
292 279 290 298 302 302 294 288 298 332 351 359 212 349 42 179 59 247 20 23 306 196 138 159 27 134 121 106 142 141 157 170 181 230 156 223 303 12 242 31 346 333 326 312 297 284 318